H1 CPF 2 NER 2025 10 13 9 286 01 glonass131 H2 1301901 9131 39155 2025 10 13 0 0 0 2025 10 16 23 45 0 900 1 1 0 0 0 1 H9 10 0 60961 0.00000 0 14214213.070 5940663.692 -20315261.839 10 0 60961 900.00000 0 15568626.839 7933648.751 -18576920.158 10 0 60961 1800.00000 0 16929427.588 9627945.981 -16477569.645 10 0 60961 2700.00000 0 18235534.218 11001207.142 -14058271.335 10 0 60961 3600.00000 0 19424651.585 12044100.719 -11366223.598 10 0 60961 4500.00000 0 20435921.466 12760419.100 -8453830.227 10 0 60961 5400.00000 0 21212525.408 13166641.490 -5377673.979 10 0 60961 6300.00000 0 21704130.973 13290974.410 -2197416.094 10 0 60961 7200.00000 0 21869079.994 13171913.121 1025356.680 10 0 60961 8100.00000 0 21676228.711 12856386.731 4228315.503 10 0 60961 9000.00000 0 21106364.421 12397566.359 7349581.104 10 0 60961 9900.00000 0 20153140.997 11852429.091 10328901.736 10 0 60961 10800.00000 0 18823495.510 11279179.822 13108796.135 10 0 60961 11700.00000 0 17137529.367 10734638.302 15635641.213 10 0 60961 12600.00000 0 15127859.108 10271699.678 17860685.373 10 0 60961 13500.00000 0 12838463.290 9936973.335 19740969.940 10 0 60961 14400.00000 0 10323072.066 9768697.429 21240142.811 10 0 60961 15300.00000 0 7643164.264 9795015.126 22329150.268 10 0 60961 16200.00000 0 4865652.501 10032684.016 22986794.852 10 0 60961 17100.00000 0 2060349.265 10486272.666 23200149.211 10 0 60961 18000.00000 0 -702683.998 11147878.829 22964817.974 10 0 60961 18900.00000 0 -3355797.854 11997382.747 22285041.914 10 0 60961 19800.00000 0 -5836317.999 13003227.383 21173641.070 10 0 60961 20700.00000 0 -8088905.919 14123695.795 19651795.938 10 0 60961 21600.00000 0 -10067619.962 15308635.257 17748668.576 10 0 60961 22500.00000 0 -11737591.194 16501558.808 15500868.262 10 0 60961 23400.00000 0 -13076243.410 17642038.466 12951769.338 10 0 60961 24300.00000 0 -14074005.039 18668291.245 10150692.034 10 0 60961 25200.00000 0 -14734481.394 19519849.874 7151960.060 10 0 60961 26100.00000 0 -15074078.233 20140205.277 4013851.974 10 0 60961 27000.00000 0 -15121090.856 20479307.931 797466.089 10 0 60961 27900.00000 0 -14914296.063 20495820.127 -2434478.732 10 0 60961 28800.00000 0 -14501106.032 20159020.955 -5618881.966 10 0 60961 29700.00000 0 -13935362.648 19450280.199 -8693514.068 10 0 60961 30600.00000 0 -13274866.935 18364035.556 -11598256.199 10 0 60961 31500.00000 0 -12578750.251 16908229.010 -14276300.230 10 0 60961 32400.00000 0 -11904801.162 15104181.684 -16675283.031 10 0 60961 33300.00000 0 -11306863.960 12985911.071 -18748330.536 10 0 60961 34200.00000 0 -10832421.704 10598918.864 -20454989.159 10 0 60961 35100.00000 0 -10520468.330 7998500.738 -21762025.033 10 0 60961 36000.00000 0 -10399761.495 5247650.008 -22644074.680 10 0 60961 36900.00000 0 -10487530.830 2414644.523 -23084134.358 10 0 60961 37800.00000 0 -10788696.145 -429580.650 -23073879.100 10 0 60961 38700.00000 0 -11295627.711 -3214163.537 -22613806.380 10 0 60961 39600.00000 0 -11988457.189 -5871033.619 -21713203.102 10 0 60961 40500.00000 0 -12835924.038 -8337504.541 -20389938.474 10 0 60961 41400.00000 0 -13796719.465 -10558633.653 -18670088.715 10 0 60961 42300.00000 0 -14821268.980 -12489251.375 -16587402.941 10 0 60961 43200.00000 0 -15853876.475 -14095578.028 -14182622.476 10 0 60961 44100.00000 0 -16835137.952 -15356363.630 -11502668.489 10 0 60961 45000.00000 0 -17704522.286 -16263506.477 -8599715.126 10 0 60961 45900.00000 0 -18403010.070 -16822128.359 -5530167.149 10 0 60961 46800.00000 0 -18875679.866 -17050106.903 -2353562.544 10 0 60961 47700.00000 0 -19074133.971 -16977087.910 868578.429 10 0 60961 48600.00000 0 -18958663.129 -16643021.833 4073935.667 10 0 60961 49500.00000 0 -18500060.867 -16096287.741 7200580.978 10 0 60961 50400.00000 0 -17681012.969 -15391484.570 10188157.151 10 0 60961 51300.00000 0 -16497005.283 -14586982.553 12979023.046 10 0 60961 52200.00000 0 -14956712.850 -13742336.949 15519344.356 10 0 60961 53100.00000 0 -13081854.455 -12915671.262 17760110.896 10 0 60961 54000.00000 0 -10906518.299 -12161137.977 19658062.825 10 0 60961 54900.00000 0 -8475985.649 -11526561.275 21176509.841 10 0 60961 55800.00000 0 -5845099.495 -11051358.749 22286029.197 10 0 60961 56700.00000 0 -3076243.309 -10764827.709 22965030.345 10 0 60961 57600.00000 0 -237010.748 -10684867.085 23200176.016 10 0 60961 58500.00000 0 2602340.353 -10817188.431 22986651.665 10 0 60961 59400.00000 0 5371547.348 -11155049.953 22328277.461 10 0 60961 60300.00000 0 8003008.109 -11679526.381 21237459.318 10 0 60961 61200.00000 0 10434343.932 -12360305.734 19734977.995 10 0 60961 62100.00000 0 12610755.028 -13156982.299 17849617.932 10 0 60961 63000.00000 0 14487071.192 -14020794.411 15617640.334 10 0 60961 63900.00000 0 16029411.795 -14896736.576 13082107.999 10 0 60961 64800.00000 0 17216384.744 -15725959.082 10292072.510 10 0 60961 65700.00000 0 18039772.532 -16448355.162 7301637.455 10 0 60961 66600.00000 0 18504674.660 -17005226.702 4168914.535 10 0 60961 67500.00000 0 18629098.577 -17341915.000 954892.201 10 0 60961 68400.00000 0 18443014.784 -17410283.450 -2277760.980 10 0 60961 69300.00000 0 17986915.065 -17170944.403 -5465933.842 10 0 60961 70200.00000 0 17309934.576 -16595132.781 -8547325.203 10 0 60961 71100.00000 0 16467617.942 -15666143.720 -11461684.849 10 0 60961 72000.00000 0 15519425.395 -14380270.259 -14152016.117 10 0 60961 72900.00000 0 14526086.677 -12747198.683 -16565714.012 10 0 60961 73800.00000 0 13546917.222 -10789842.822 -18655614.245 10 0 60961 74700.00000 0 12637212.808 -8543623.151 -20380930.683 10 0 60961 75600.00000 0 11845835.210 -6055220.756 -21708061.462 10 0 60961 76500.00000 0 11213092.718 -3380858.998 -22611247.268 10 0 60961 77400.00000 0 10769006.112 -584186.073 -23073068.796 10 0 60961 78300.00000 0 10532033.479 2266151.462 -23084774.252 10 0 60961 79200.00000 0 10508306.945 5099141.294 -22646431.600 10 0 60961 80100.00000 0 10691411.998 7844132.937 -21766904.121 10 0 60961 81000.00000 0 11062716.539 10433545.770 -20463651.593 10 0 60961 81900.00000 0 11592233.252 12805444.673 -18762362.942 10 0 60961 82800.00000 0 12239976.247 14905876.614 -16696429.516 10 0 60961 83700.00000 0 12957752.266 16690872.464 -14306271.112 10 0 60961 84600.00000 0 13691308.784 18128032.912 -11638529.555 10 0 60961 85500.00000 0 14382746.841 19197635.292 -8745146.893 10 0 60962 0.00000 0 14973095.950 19893218.430 -5682347.448 10 0 60962 900.00000 0 15404942.645 20221624.888 -2509542.436 10 0 60962 1800.00000 0 15625001.619 20202501.341 711817.203 10 0 60962 2700.00000 0 15586523.308 19867282.193 3919423.276 10 0 60962 3600.00000 0 15251437.182 19257700.279 7051301.808 10 0 60962 4500.00000 0 14592142.578 18423889.026 10046993.148 10 0 60962 5400.00000 0 13592873.302 17422156.111 12848699.110 10 0 60962 6300.00000 0 12250579.959 16312521.680 15402376.766 10 0 60962 7200.00000 0 10575293.661 15156123.238 17658759.669 10 0 60962 8100.00000 0 8589955.823 14012594.250 19574288.856 10 0 60962 9000.00000 0 6329720.224 12937524.206 21111937.572 10 0 60962 9900.00000 0 3840754.667 11980104.380 22241915.478 10 0 60962 10800.00000 0 1178589.638 11181055.904 22942240.036 10 0 60962 11700.00000 0 -1593920.532 10570925.369 23199164.796 10 0 60962 12600.00000 0 -4408942.696 10168818.596 23007456.384 10 0 60962 13500.00000 0 -7196222.322 9981625.549 22370514.281 10 0 60962 14400.00000 0 -9885750.400 10003769.804 21300329.740 10 0 60962 15300.00000 0 -12410431.828 10217494.701 19817282.780 10 0 60962 16200.00000 0 -14708646.355 10593676.418 17949778.778 10 0 60962 17100.00000 0 -16726596.593 11093132.371 15733729.007 10 0 60962 18000.00000 0 -18420345.320 11668372.435 13211882.525 10 0 60962 18900.00000 0 -19757456.228 12265721.413 10433019.803 10 0 60962 19800.00000 0 -20718167.945 12827724.774 7451021.667 10 0 60962 20700.00000 0 -21296050.089 13295736.686 4323830.223 10 0 60962 21600.00000 0 -21498111.665 13612580.551 1112321.261 10 0 60962 22500.00000 0 -21344355.256 13725168.015 -2120889.748 10 0 60962 23400.00000 0 -20866794.322 13586963.251 -5312683.792 10 0 60962 24300.00000 0 -20107974.288 13160185.120 -8400690.817 10 0 60962 25200.00000 0 -19119060.027 12417650.567 -11324531.947 10 0 60962 26100.00000 0 -17957571.490 11344177.824 -14027024.578 10 0 60962 27000.00000 0 -16684864.963 9937486.981 -16455324.266 10 0 60962 27900.00000 0 -15363468.657 8208557.359 -18561978.681 10 0 60962 28800.00000 0 -14054387.724 6181424.903 -20305871.003 10 0 60962 29700.00000 0 -12814494.933 3892427.274 -21653032.887 10 0 60962 30600.00000 0 -11694119.141 1388928.344 -22577310.309 10 0 60962 31500.00000 0 -10734934.618 -1272423.626 -23060869.133 10 0 60962 32400.00000 0 -9968240.682 -4027829.993 -23094531.061 10 0 60962 33300.00000 0 -9413703.655 -6808777.203 -22677934.484 10 0 60962 34200.00000 0 -9078612.788 -9544670.573 -21819518.597 10 0 60962 35100.00000 0 -8957679.324 -12165555.410 -20536332.929 10 0 60962 36000.00000 0 -9033384.474 -14604811.497 -18853677.948 10 0 60962 36900.00000 0 -9276858.622 -16801708.737 -16804585.770 10 0 60962 37800.00000 0 -9649251.707 -18703718.450 -14429152.970 10 0 60962 38700.00000 0 -10103534.272 -20268485.661 -11773740.141 10 0 60962 39600.00000 0 -10586650.965 -21465382.549 -8890055.228 10 0 60962 40500.00000 0 -11041934.091 -22276581.118 -5834139.462 10 0 60962 41400.00000 0 -11411674.558 -22697603.533 -2665276.267 10 0 60962 42300.00000 0 -11639741.731 -22737330.328 555155.457 10 0 60962 43200.00000 0 -11674142.305 -22417469.142 3764861.660 10 0 60962 44100.00000 0 -11469411.538 -21771508.707 6901824.879 10 0 60962 45000.00000 0 -10988737.617 -20843203.671 9905485.383 10 0 60962 45900.00000 0 -10205731.315 -19684654.673 12717890.355 10 0 60962 46800.00000 0 -9105767.994 -18354064.093 15284790.661 10 0 60962 47700.00000 0 -7686846.533 -16913260.698 17556665.963 10 0 60962 48600.00000 0 -5959929.509 -15425095.218 19489660.424 10 0 60962 49500.00000 0 -3948749.828 -13950813.799 21046412.901 10 0 60962 50400.00000 0 -1689090.537 -12547516.853 22196767.279 10 0 60962 51300.00000 0 772434.418 -11265807.263 22918350.563 10 0 60962 52200.00000 0 3380050.661 -10147724.247 23197008.348 10 0 60962 53100.00000 0 6070878.995 -9225047.817 23027089.345 10 0 60962 54000.00000 0 8777294.381 -8518044.038 22411572.944 10 0 60962 54900.00000 0 11429493.809 -8034703.664 21362036.042 10 0 60962 55800.00000 0 13958169.440 -7770507.011 19898457.926 10 0 60962 56700.00000 0 16297178.335 -7708726.500 18048864.598 10 0 60962 57600.00000 0 18386099.169 -7821256.313 15848816.775 10 0 60962 58500.00000 0 20172569.898 -8069936.552 13340748.770 10 0 60962 59400.00000 0 21614308.320 -8408318.311 10573168.541 10 0 60962 60300.00000 0 22680729.703 -8783796.943 7599732.317 10 0 60962 61200.00000 0 23354091.677 -9140024.387 4478210.318 10 0 60962 62100.00000 0 23630116.023 -9419498.607 1269362.980 10 0 60962 63000.00000 0 23518058.872 -9566219.586 -1964250.372 10 0 60962 63900.00000 0 23040224.342 -9528297.449 -5159506.176 10 0 60962 64800.00000 0 22230940.747 -9260399.512 -8253968.935 10 0 60962 65700.00000 0 21135042.003 -8725929.335 -11187134.540 10 0 60962 66600.00000 0 19805918.654 -7898842.018 -13901637.788 10 0 60962 67500.00000 0 18303221.995 -6765015.623 -16344397.948 10 0 60962 68400.00000 0 16690320.064 -5323117.832 -18467677.569 10 0 60962 69300.00000 0 15031615.126 -3584929.053 -20230031.783 10 0 60962 70200.00000 0 13389838.181 -1575106.996 -21597128.071 10 0 60962 71100.00000 0 11823436.645 669597.926 -22542419.637 10 0 60962 72000.00000 0 10384166.830 3101643.086 -23047659.044 10 0 60962 72900.00000 0 9114993.394 5664454.584 -23103242.583 10 0 60962 73800.00000 0 8048383.972 8294573.581 -22708379.697 10 0 60962 74700.00000 0 7205069.665 10924096.817 -21871085.653 10 0 60962 75600.00000 0 6593321.506 13483308.024 -20607999.416 10 0 60962 76500.00000 0 6208770.656 15903389.509 -18944032.227 10 0 60962 77400.00000 0 6034776.675 18119100.394 -16911855.765 10 0 60962 78300.00000 0 6043325.043 20071310.145 -14551241.744 10 0 60962 79200.00000 0 6196412.813 21709282.850 -11908267.496 10 0 60962 80100.00000 0 6447861.152 22992618.693 -9034404.449 10 0 60962 81000.00000 0 6745476.031 23892774.001 -5985508.287 10 0 60962 81900.00000 0 7033464.413 24394099.203 -2820731.068 10 0 60962 82800.00000 0 7255003.265 24494354.282 398623.300 10 0 60962 83700.00000 0 7354853.096 24204683.094 3610278.223 10 0 60962 84600.00000 0 7281906.546 23549050.182 6752176.083 10 0 60962 85500.00000 0 6991565.868 22563165.610 9763660.313 10 0 60963 0.00000 0 6447850.724 21292944.177 12586626.297 10 0 60963 900.00000 0 5625148.806 19792563.102 15166622.060 10 0 60963 1800.00000 0 4509537.707 18122200.650 17453875.702 10 0 60963 2700.00000 0 3099622.311 16345546.695 19404236.822 10 0 60963 3600.00000 0 1406853.201 14527188.883 20980011.881 10 0 60963 4500.00000 0 -544688.366 12729980.601 22150680.659 10 0 60963 5400.00000 0 -2719031.714 11012498.192 22893481.024 10 0 60963 6300.00000 0 -5069555.934 9426691.150 23193851.548 10 0 60963 7200.00000 0 -7540678.602 8015821.413 23045723.542 10 0 60963 8100.00000 0 -10069927.360 6812776.421 22451656.367 10 0 60963 9000.00000 0 -12590311.861 5838825.793 21422812.143 10 0 60963 9900.00000 0 -15032900.797 5102873.874 19978768.498 10 0 60963 10800.00000 0 -17329499.611 4601240.402 18147170.656 10 0 60963 11700.00000 0 -19415319.371 4317980.106 15963226.902 10 0 60963 12600.00000 0 -21231526.496 4225729.756 13469054.533 10 0 60963 13500.00000 0 -22727566.822 4287049.091 10712886.401 10 0 60963 14400.00000 0 -23863165.753 4456200.873 7748151.308 10 0 60963 15300.00000 0 -24609918.795 4681296.164 4632444.628 10 0 60963 16200.00000 0 -24952403.327 4906714.571 1426408.411 10 0 60963 17100.00000 0 -24888762.267 5075696.541 -1807457.195 10 0 60963 18000.00000 0 -24430732.554 5132996.427 -5006027.081 10 0 60963 18900.00000 0 -23603115.292 5027481.550 -8106803.252 10 0 60963 19800.00000 0 -22442708.606 4714564.141 -11049159.225 10 0 60963 20700.00000 0 -20996747.860 4158359.715 -13775549.933 10 0 60963 21600.00000 0 -19320919.576 3333477.102 -16232660.903 10 0 60963 22500.00000 0 -17477034.113 2226361.272 -18372471.840 10 0 60963 23400.00000 0 -15530457.185 836129.644 -20153211.759 10 0 60963 24300.00000 0 -13547410.588 -825135.206 -21540185.474 10 0 60963 25200.00000 0 -11592257.937 -2732649.746 -22506454.447 10 0 60963 26100.00000 0 -9724891.367 -4849739.599 -23033358.476 10 0 60963 27000.00000 0 -7998330.164 -7129160.929 -23110868.477 10 0 60963 27900.00000 0 -6456632.455 -9514876.573 -22737764.522 10 0 60963 28800.00000 0 -5133206.948 -11944211.058 -21921637.100 10 0 60963 29700.00000 0 -4049593.943 -14350292.902 -20678713.390 10 0 60963 30600.00000 0 -3214764.259 -16664680.859 -19033513.874 10 0 60963 31500.00000 0 -2624962.393 -18820063.580 -17018348.016 10 0 60963 32400.00000 0 -2264096.921 -20752919.744 -14672660.707 10 0 60963 33300.00000 0 -2104658.118 -22406028.083 -12042243.944 10 0 60963 34200.00000 0 -2109120.736 -23730723.670 -9178330.511 10 0 60963 35100.00000 0 -2231769.945 -24688808.037 -6136588.410 10 0 60963 36000.00000 0 -2420871.217 -25254035.679 -2976036.220 10 0 60963 36900.00000 0 -2621091.253 -25413117.421 242099.208 10 0 60963 37800.00000 0 -2776067.247 -25166201.378 3455560.793 10 0 60963 38700.00000 0 -2831016.407 -24526813.931 6602252.789 10 0 60963 39600.00000 0 -2735276.573 -23521265.215 9621423.829 10 0 60963 40500.00000 0 -2444672.251 -22187545.424 12454820.020 10 0 60963 41400.00000 0 -1923607.991 -20573758.690 15047787.550 10 0 60963 42300.00000 0 -1146802.512 -18736159.751 17350305.460 10 0 60963 43200.00000 0 -100591.821 -16736874.328 19317930.654 10 0 60963 44100.00000 0 1216252.890 -14641396.542 20912638.931 10 0 60963 45000.00000 0 2792227.171 -12515965.417 22103547.498 10 0 60963 45900.00000 0 4603328.781 -10424927.186 22867506.390 10 0 60963 46800.00000 0 6613818.975 -8428190.624 23189548.206 10 0 60963 47700.00000 0 8777480.718 -6578879.081 23063187.654 10 0 60963 48600.00000 0 11039324.804 -4921275.129 22490564.604 10 0 60963 49500.00000 0 13337676.449 -3489142.322 21482426.686 10 0 60963 50400.00000 0 15606559.019 -2304493.733 20057949.929 10 0 60963 51300.00000 0 17778278.706 -1376859.093 18244398.575 10 0 60963 52200.00000 0 19786104.845 -703082.290 16076628.023 10 0 60963 53100.00000 0 21566935.447 -267659.346 13596437.797 10 0 60963 54000.00000 0 23063836.983 -43604.480 10851784.556 10 0 60963 54900.00000 0 24228351.464 6190.402 7895868.221 10 0 60963 55800.00000 0 25022472.459 -72841.281 4786107.469 10 0 60963 56700.00000 0 25420204.767 -229100.128 1583023.718 10 0 60963 57600.00000 0 25408639.396 -407251.046 -1650944.660 10 0 60963 58500.00000 0 24988495.782 -550820.583 -4852673.892 10 0 60963 59400.00000 0 24174105.881 -604849.339 -7959606.549 10 0 60963 60300.00000 0 22992838.861 -518484.393 -10910996.929 10 0 60963 61200.00000 0 21483989.578 -247398.725 -13649123.215 10 0 60963 62100.00000 0 19697177.471 244068.227 -16120440.201 10 0 60963 63000.00000 0 17690324.072 981142.720 -18276647.597 10 0 60963 63900.00000 0 15527295.730 1977299.125 -20075650.937 10 0 60963 64800.00000 0 13275312.689 3233450.422 -21482394.776 10 0 60963 65700.00000 0 11002235.489 4737682.232 -22469550.990 10 0 60963 66600.00000 0 8773844.647 6465542.082 -23018048.463 10 0 60963 67500.00000 0 6651229.171 8380871.404 -23117434.252 10 0 60963 68400.00000 0 4688394.104 10437144.393 -22766060.177 10 0 60963 69300.00000 0 2930187.188 12579256.112 -21971092.630 10 0 60963 70200.00000 0 1410630.279 14745683.374 -20748347.207 10 0 60963 71100.00000 0 151723.297 16870926.393 -19121953.350 10 0 60963 72000.00000 0 -837232.078 18888127.840 -17123857.515 10 0 60963 72900.00000 0 -1559764.115 20731759.035 -14793176.507 10 0 60963 73800.00000 0 -2031816.433 22340260.892 -12175415.259 10 0 60963 74700.00000 0 -2280808.242 23658529.759 -9321565.764 10 0 60963 75600.00000 0 -2344212.431 24640145.464 -6287105.814 10 0 60963 76500.00000 0 -2267714.220 25249250.223 -3130917.677 10 0 60963 77400.00000 0 -2103030.043 25462002.014 85851.941 10 0 60963 78300.00000 0 -1905479.812 25267544.055 3300968.711 10 0 60963 79200.00000 0 -1731415.274 24668452.182 6452302.077 10 0 60963 80100.00000 0 -1635612.392 23680643.473 9479009.181 10 0 60963 81000.00000 0 -1668736.560 22332751.474 12322689.832 10 0 60963 81900.00000 0 -1874985.913 20664994.963 14928491.972 10 0 60963 82800.00000 0 -2290010.299 18727587.483 17246148.196 10 0 60963 83700.00000 0 -2939191.977 16578753.195 19230925.365 10 0 60963 84600.00000 0 -3836359.251 14282430.126 20844470.996 10 0 60963 85500.00000 0 -4982986.739 11905754.260 22055541.802 10 0 60964 0.00000 0 -6367916.204 9516426.732 22840601.666 10 0 60964 900.00000 0 -7967611.907 7180069.547 23184278.714 10 0 60964 1800.00000 0 -9746940.241 4957680.314 23079671.872 10 0 60964 2700.00000 0 -11660446.603 2903285.286 22528501.956 10 0 60964 3600.00000 0 -13654077.870 1061889.848 21541102.021 10 0 60964 4500.00000 0 -15667282.907 -532190.385 20136245.853 10 0 60964 5400.00000 0 -17635406.669 -1856548.235 18340815.534 10 0 60964 6300.00000 0 -19492280.760 -2901401.865 16189311.851 10 0 60964 7200.00000 0 -21172904.096 -3669778.675 13723214.364 10 0 60964 8100.00000 0 -22616102.455 -4177156.870 10990200.934 10 0 60964 9000.00000 0 -23767055.302 -4450578.027 8043239.670 10 0 60964 9900.00000 0 -24579582.612 -4527266.482 4939569.405 10 0 60964 10800.00000 0 -25018093.486 -4452812.735 1739587.643 10 0 60964 11700.00000 0 -25059111.825 -4278997.308 -1494332.361 10 0 60964 12600.00000 0 -24692311.764 -4061347.662 -4699071.514 10 0 60964 13500.00000 0 -23921016.304 -3856533.078 -7812016.244 10 0 60964 14400.00000 0 -22762135.576 -3719710.113 -10772304.824 10 0 60964 15300.00000 0 -21245545.537 -3701934.022 -13522041.750 10 0 60964 16200.00000 0 -19412932.369 -3847748.990 -16007453.933 10 0 60964 17100.00000 0 -17316151.237 -4193062.453 -18179963.638 10 0 60964 18000.00000 0 -15015169.347 -4763396.404 -19997155.081 10 0 60964 18900.00000 0 -12575681.325 -5572591.931 -21423614.232 10 0 60964 19800.00000 0 -10066498.905 -6622023.353 -22431624.496 10 0 60964 20700.00000 0 -7556826.404 -7900355.810 -23001704.364 10 0 60964 21600.00000 0 -5113537.811 -9383856.500 -23122976.964 10 0 60964 22500.00000 0 -2798570.536 -11037245.644 -22793365.233 10 0 60964 23400.00000 0 -666545.198 -12815050.090 -22019610.350 10 0 60964 24300.00000 0 1237289.705 -14663401.057 -20817114.808 10 0 60964 25200.00000 0 2878703.881 -16522198.880 -19209615.143 10 0 60964 26100.00000 0 4235655.770 -18327552.444 -17228692.702 10 0 60964 27000.00000 0 5298941.722 -20014389.914 -14913133.912 10 0 60964 27900.00000 0 6072300.406 -21519130.801 -12308154.231 10 0 60964 28800.00000 0 6571971.920 -22782307.447 -9464502.394 10 0 60964 29700.00000 0 6825733.947 -23751026.841 -6437463.498 10 0 60964 30600.00000 0 6871458.788 -24381170.983 -3285781.039 10 0 60964 31500.00000 0 6755254.694 -24639245.415 -70519.178 10 0 60964 32400.00000 0 6529271.616 -24503800.615 3146112.819 10 0 60964 33300.00000 0 6249264.746 -23966368.906 6301951.812 10 0 60964 34200.00000 0 5972018.559 -23031879.671 9336065.556 10 0 60964 35100.00000 0 5752739.154 -21718537.077 12189909.552 10 0 60964 36000.00000 0 5642523.397 -20057166.390 14808435.341 10 0 60964 36900.00000 0 5686009.717 -18090056.404 17141130.754 10 0 60964 37800.00000 0 5919307.676 -15869345.613 19142974.106 10 0 60964 38700.00000 0 6368291.866 -13455017.983 20775285.908 10 0 60964 39600.00000 0 7047330.867 -10912589.572 22006463.410 10 0 60964 40500.00000 0 7958504.405 -8310579.594 22812585.230 10 0 60964 41400.00000 0 9091342.281 -5717868.011 23177875.249 10 0 60964 42300.00000 0 10423097.627 -3201046.548 23095017.059 10 0 60964 43200.00000 0 11919545.541 -821870.427 22565312.457 10 0 60964 44100.00000 0 13536276.809 1365085.444 21598679.747 10 0 60964 45000.00000 0 15220436.015 3314469.798 20213490.109 10 0 60964 45900.00000 0 16912834.815 4991813.454 18436242.916 10 0 60964 46800.00000 0 18550355.005 6374733.578 16301083.630 10 0 60964 47700.00000 0 20068543.152 7453632.536 13849170.925 10 0 60964 48600.00000 0 21404289.473 8231860.702 11127902.730 10 0 60964 49500.00000 0 22498478.939 8725334.692 8190013.969 10 0 60964 50400.00000 0 23298502.433 8961625.440 5092561.973 10 0 60964 51300.00000 0 23760520.554 8978553.193 1895818.412 10 0 60964 52200.00000 0 23851382.193 8822348.001 -1337910.760 10 0 60964 53100.00000 0 23550113.896 8545453.538 -4545513.516 10 0 60964 54000.00000 0 22848914.046 8204068.089 -7664322.686 10 0 60964 54900.00000 0 21753606.901 7855528.655 -10633363.120 10 0 60964 55800.00000 0 20283534.928 7555651.446 -13394568.217 10 0 60964 56700.00000 0 18470892.317 7356144.413 -15893939.527 10 0 60964 57600.00000 0 16359526.989 7302204.470 -18082624.277 10 0 60964 58500.00000 0 14003261.713 7430404.097 -19917887.637 10 0 60964 59400.00000 0 11463805.853 7766959.202 -21363959.134 10 0 60964 60300.00000 0 8808346.915 8326453.250 -22392735.677 10 0 60964 61200.00000 0 6106924.702 9111072.535 -22984327.167 10 0 60964 62100.00000 0 3429699.736 10110384.971 -23127434.369 10 0 60964 63000.00000 0 844231.564 11301671.077 -22819552.613 10 0 60964 63900.00000 0 -1587118.546 12650791.901 -22066998.762 10 0 60964 64800.00000 0 -3809552.170 14113555.643 -20884762.670 10 0 60964 65700.00000 0 -5777867.862 15637523.611 -19296187.963 10 0 60964 66600.00000 0 -7458081.861 17164177.745 -17332490.382 10 0 60964 67500.00000 0 -8828570.460 18631357.142 -15032125.001 10 0 60964 68400.00000 0 -9880689.721 19975860.168 -12440016.390 10 0 60964 69300.00000 0 -10618850.391 21136102.460 -9606668.211 10 0 60964 70200.00000 0 -11060048.786 22054719.445 -6587170.716 10 0 60964 71100.00000 0 -11232876.996 22681004.966 -3440126.192 10 0 60964 72000.00000 0 -11176057.109 22973085.099 -226513.596 10 0 60964 72900.00000 0 -10936563.546 22899737.729 2991485.722 10 0 60964 73800.00000 0 -10567414.004 22441783.562 6151678.996 10 0 60964 74700.00000 0 -10125222.629 21592992.182 9193047.641 10 0 60964 75600.00000 0 -9667618.120 20360466.826 12056905.916 10 0 60964 76500.00000 0 -9250634.411 18764492.880 14688012.000 10 0 60964 77400.00000 0 -8926182.149 16837856.795 17035611.928 10 0 60964 78300.00000 0 -8739705.471 14624663.465 19054398.298 10 0 60964 79200.00000 0 -8728120.725 12178700.067 20705367.265 10 0 60964 80100.00000 0 -8918122.280 9561412.497 21956559.032 10 0 60964 81000.00000 0 -9324925.616 6839575.890 22783669.005 10 0 60964 81900.00000 0 -9951500.381 4082752.964 23170518.718 10 0 60964 82800.00000 0 -10788326.394 1360642.555 23109377.674 10 0 60964 83700.00000 0 -11813684.544 -1259574.596 22601129.502 10 0 60964 84600.00000 0 -12994472.938 -3715785.248 21655278.081 10 0 60964 85500.00000 0 -14287517.134 -5953284.219 20289791.754 99